Location: Tarragona
(41.1170°N, 1.2500°E)
Time: 05:57:00
(UTC+02:00)

ISS - Visible Passes

Search period start: 20 October 2019 00:00
Search period end: 29 October 2019 23:00
Orbit: 411 x 421 km, 51.6° (Epoch: 20 October)

Date Brightness Start Highest point End Pass type
(mag) Time Alt. Az. Time Alt. Az. Time Alt. Az.
21 Oct -0.1 07:37:53 10° SE 07:38:23 10° SE 07:38:52 10° ESE visible
23 Oct -1.6 07:34:37 10° SSW 07:37:34 28° SE 07:40:31 10° ENE visible
24 Oct -0.9 06:46:55 10° S 06:49:08 17° SE 06:51:21 10° E visible
25 Oct -3.7 07:33:33 10° SW 07:36:55 83° SE 07:40:17 10° NE visible
26 Oct -2.8 06:46:39 24° SSW 06:48:20 46° SE 06:51:35 10° ENE visible
27 Oct -1.4 05:00:39 23° ESE 05:00:39 23° ESE 05:02:41 10° ENE visible
27 Oct -3.1 06:33:35 12° W 06:36:25 39° NNW 06:39:38 10° NE visible
28 Oct -3.8 05:47:24 59° WNW 05:47:43 63° NNW 05:51:04 10° NE visible
29 Oct -1.3 05:01:05 22° ENE 05:01:05 22° ENE 05:02:25 10° ENE visible
29 Oct -2.2 06:34:00 13° WNW 06:36:05 22° NNW 06:38:47 10° NNE visible
